#timestamp,LO_Frequency,Hit,StdDev 
1604887215.2,286046998.1,N
1604887235.1,286046999.3,N
1604887236.0,286046999.3,N
1604887255.8,286046998.1,N
1604887275.6,286047001.2,N
1604887295.5,286047001.1,N
1604887315.3,286046999.0,N
1604887335.1,286046998.7,N
1604887355.9,286047000.7,N
1604887375.7,286047001.1,N
1604887395.6,286047000.8,N
1604887415.4,286046998.5,N
1604887435.2,286046998.2,N
1604887455.1,286046998.9,N
1604887456.0,286046998.9,N
1604887475.8,286046996.6,N
1604887495.7,286046996.6,N
1604887515.5,286046996.9,N
1604887535.3,286046997.2,N
1604887555.2,286046999.4,N
1604887575.9,286047000.8,N
1604887595.7,286047000.8,N
1604887615.6,286047000.2,N
1604887635.4,286047000.2,N
1604887655.3,286047001.0,N
1604887675.1,286047001.0,N
1604887676.0,286047001.0,N
1604887695.8,286047001.8,N
1604887715.7,286047002.7,N
1604887735.5,286047000.1,N
1604887755.3,286046999.8,N
1604887775.2,286046999.9,N
1604887795.0,286046999.9,N
1604887795.9,286046999.9,N
1604887815.8,286047000.1,N
1604887835.6,286047002.2,N
1604887855.4,286047001.5,N
1604887875.3,286047003.7,N
1604887895.1,286047004.2,N
1604887915.9,286047001.5,N
1604887935.7,286047002.3,N
1604887955.5,286046999.8,N
1604887975.4,286047002.4,N
1604887995.2,286047000.0,N
1604888015.0,286046998.1,N
1604888015.9,286046998.1,N
1604888035.8,286047000.4,N
1604888055.6,286047002.6,N
1604888075.5,286047002.7,N
1604888095.3,286047002.5,N
1604888115.1,286047002.8,N
1604888135.9,286047000.2,N
1604888155.7,286047000.4,N
1604888175.5,286047000.2,N
1604888195.4,286046999.8,N
1604888215.2,286047002.4,N
1604888235.1,286046999.8,N
1604888236.0,286046999.8,N
1604888255.8,286047002.2,N
1604888275.6,286047002.3,N
1604888295.5,286047004.4,N
1604888315.3,286047002.7,N
1604888335.2,286047002.6,N
1604888355.9,286047002.5,N
1604888375.7,286047002.5,N
1604888395.6,286047002.4,N
1604888415.4,286047001.6,N
1604888435.2,286047001.6,N
1604888455.1,286047001.5,N
1604888456.0,286047001.5,N
1604888475.8,286047002.3,N
1604888495.7,286047002.5,N
1604888515.5,286047002.8,N
1604888535.3,286047001.9,N
1604888555.2,286047002.1,N
1604888575.0,286047002.7,N
1604888575.9,286047002.7,N
1604888595.8,286047002.5,N
1604888615.6,286047002.7,N
1604888635.4,286047000.9,N
1604888655.3,286047000.1,N
1604888675.1,286047001.0,N
1604888695.8,286046998.7,N
1604888715.7,286046999.6,N
1604888735.5,286046999.2,N
1604888755.4,286046999.6,N
1604888775.2,286047001.0,N
1604888795.0,286047001.0,N
1604888795.9,286047001.0,N
1604888815.8,286046999.9,N
1604888835.6,286047001.2,N
1604888855.5,286046998.5,N
1604888875.3,286046998.7,N
1604888895.1,286046999.1,N
1604888915.9,286047000.7,N
1604888935.7,286046998.3,N
1604888955.5,286046999.4,N
1604888975.4,286046999.3,N
1604888995.2,286046999.2,N
1604889015.1,286046999.6,N
1604889016.0,286046999.6,N
1604889035.8,286046998.8,N
1604889055.6,286046999.2,N
1604889075.5,286046999.1,N
1604889095.3,286046996.6,N
1604889115.2,286046996.5,N
1604889135.9,286046997.2,N
1604889155.7,286046999.6,N
1604889175.6,286046997.2,N
1604889195.4,286046998.0,N
1604889215.2,286046998.0,N
1604889235.1,286046995.5,Y
1604889236.0,286046995.5,P
1604889255.8,286046998.0,N
1604889275.7,286046995.3,P
1604889295.5,286046996.7,N
1604889315.3,286046999.2,N
1604889335.2,286046997.2,N
1604889355.0,286046997.8,N
1604889355.9,286046997.8,N
1604889375.8,286046999.2,N
1604889395.6,286046999.0,N
1604889415.4,286046996.9,N
1604889435.3,286046996.6,N
1604889455.1,286046997.0,N
1604889475.8,286046997.1,N
1604889495.7,286046997.8,N
1604889515.5,286046996.9,N
1604889535.4,286046996.5,Y
1604889555.2,286046999.8,P
1604889575.0,286047000.9,N
1604889575.9,286047000.9,N
1604889595.8,286046999.9,N
1604889615.6,286047000.4,N
1604889635.5,286047001.0,N
1604889655.3,286047000.9,N
1604889675.1,286047001.1,N
1604889695.9,286046998.5,N
1604889715.7,286047000.8,N
1604889735.5,286047001.2,N
1604889755.4,286047000.6,N
1604889775.2,286047001.1,N
1604889795.1,286046998.1,N
1604889796.0,286046998.1,N
1604889815.8,286046998.9,N
1604889835.6,286046999.3,N
1604889855.5,286046998.6,N
1604889875.3,286046998.6,N
1604889895.1,286046998.6,N
1604889915.9,286046998.9,N
1604889935.7,286046999.2,N
1604889955.6,286046999.4,N
1604889975.4,286046999.6,N
1604889995.2,286046998.7,N
1604890015.1,286046998.2,N
1604890016.0,286046998.2,N
1604890035.8,286046998.1,N
1604890055.7,286047000.5,N
1604890075.5,286046998.2,N
1604890095.3,286047001.1,N
1604890115.2,286047000.0,N
1604890135.0,286047000.3,N
1604890135.9,286047000.3,N
1604890155.7,286047000.0,N
1604890175.6,286047000.4,N
1604890195.4,286047000.3,N
1604890215.3,286047000.8,N
1604890235.1,286047000.3,N
1604890236.0,286047000.3,N
1604890255.8,286046998.2,N
1604890275.7,286047001.1,N
1604890295.5,286047000.5,N
1604890315.3,286047000.3,N
1604890335.2,286047000.9,N
1604890355.0,286047000.7,N
1604890355.9,286047000.7,N
1604890375.8,286047001.2,N
1604890395.6,286046998.3,N
1604890415.4,286046999.0,N
1604890435.3,286046998.2,N
1604890455.1,286047000.7,N
1604890475.9,286046998.1,N
1604890495.7,286046999.0,N
1604890515.5,286046999.2,N
1604890535.4,286046998.5,N
1604890555.2,286046998.4,N
1604890575.0,286046998.1,N
1604890575.9,286046998.1,N
1604890595.8,286046998.4,N
1604890615.6,286047000.8,N
1604890635.5,286046998.4,N
1604890655.3,286046999.5,N
1604890675.1,286046997.0,N
1604890695.9,286046999.3,N
1604890715.7,286047000.9,N
1604890735.5,286046998.5,N
1604890755.4,286047001.2,N
1604890775.2,286046998.6,N
1604890795.1,286046998.4,N
1604890796.0,286046998.4,N
